Location: Poggetto
(44.7333°N, 11.3500°E)
Time: 01:32:35
(UTC+00:00)

Daily predictions for brighter satellites

Satellite Brightness Start Highest point End
(mag) Time Altitude Azimuth Time Altitude Azimuth Time Altitude Azimuth
CENTAUR R/B 4.3 02:28:54 25° E 02:28:54 25° E 02:32:42 10° NE
Cosmos 2344 3.8 02:53:31 59° ENE 02:53:31 59° ENE 02:59:54 10° NE
USA 238 DEB 4.1 03:12:40 52° SE 03:12:58 52° ESE 03:19:30 10° NE
USA 238 4.2 03:12:43 51° SE 03:13:04 52° ESE 03:19:36 10° NE
BREEZE-M DEB (TANK) 4.2 03:15:56 42° E 03:15:56 42° E 03:22:25 10° ESE
Cosmos 2034 Rocket 4.3 03:24:10 60° SE 03:24:10 60° SE 03:29:22 10° SSE
USA 215 3.8 03:18:51 10° E 03:25:01 47° NNE 03:25:43 46° N
Cosmos 2369 Rocket 3.7 03:32:22 10° SSE 03:37:19 33° ESE 03:42:17 10° NE
NOSS 3-3 (A) 4.4 03:44:28 57° NW 03:46:24 87° SW 03:54:57 10° SSE
NOSS 3-3 (C) 4.4 03:44:32 57° NW 03:46:30 88° SW 03:55:02 10° SSE
COSMO-SKYMED 1 4.1 03:43:06 10° SE 03:46:59 33° ENE 03:48:36 25° NNE
Cosmos 1867 3.7 03:50:14 66° SSE 03:50:14 66° SSE 03:54:55 10° SSE
MOS 1-B Rocket 4.3 03:43:49 10° SSE 03:50:06 64° ENE 03:54:14 19° N
Tsikada Rocket 4.0 03:45:42 10° S 03:51:52 80° E 03:58:10 10° N
Cosmos 2208 Rocket 4.0 03:52:17 84° E 03:52:17 84° E 03:57:36 10° SSE
H-2A R/B 4.2 03:50:21 10° NNE 03:53:47 35° E 03:57:14 10° SSE
Gblst 52 Del rocket 4.3 03:54:35 72° NW 03:54:44 72° NNW 04:01:25 10° ENE
Cosmos 1943 Rocket 2.1 04:06:38 66° NW 04:06:38 66° NW 04:12:10 10° NNE
CZ-2C R/B 3.1 04:02:40 10° SSE 04:08:04 61° ENE 04:13:24 10° N
SL-19 R/B 4.2 04:04:42 10° SSE 04:10:19 90° ENE 04:13:20 29° NNW
Cosmos 1241 Rocket 4.3 04:10:32 54° NW 04:11:55 73° WSW 04:18:04 10° SSE
SL-8 R/B 3.8 04:16:23 58° NNW 04:16:47 60° N 04:21:31 10° E
CENTAUR R/B 2.5 04:16:08 51° W 04:17:13 57° NW 04:24:16 10° NNE
Cosmos 2297 3.8 04:21:07 51° WNW 04:21:29 52° WNW 04:27:05 10° NNE
Iridium 2 3.8 04:22:29 10° S 04:26:15 73° E 04:30:02 10° N
NOSS 3-2 (A) 3.8 04:27:49 39° NW 04:28:24 40° NW 04:34:35 10° NNE
Cosmos 2278 Rocket 4.3 04:33:50 12° NNW 04:33:50 12° NNW 04:34:35 10° N
SKYMED 2 3.4 04:30:35 10° S 04:34:54 79° WSW 04:37:12 28° NNW
NOSS 3-2 (C) 3.4 04:33:35 36° WSW 04:35:43 56° NW 04:42:08 10° NNE
Envisat 2.8 04:30:57 10° N 04:36:03 79° WNW 04:41:08 10° SSW
Meteor 2-6 Rocket 4.3 04:31:32 10° N 04:36:58 73° ENE 04:42:20 10° SSE
Cosmos 2098 Rocket 2.8 04:37:27 10° S 04:41:13 81° W 04:46:02 10° N
Meteor 2-3 Rocket 4.0 04:36:39 10° SW 04:42:00 42° WNW 04:47:26 10° N
Landsat 5 3.5 04:40:02 10° SSE 04:44:32 81° WSW 04:48:26 14° NNW
Cosmos 968 Rocket 3.6 04:42:38 23° SW 04:45:31 46° WNW 04:50:28 10° N
Meteor 2-13 Rocket 4.4 04:40:19 10° SSW 04:46:20 60° WNW 04:52:22 10° N
CZ-4B R/B 4.0 04:44:07 10° N 04:48:33 70° WNW 04:53:00 10° SSW
Genesis I 3.8 04:49:24 37° WSW 04:49:44 38° WSW 04:53:30 10° S
Cosmos 921 Rocket 3.3 04:50:35 35° WNW 04:51:54 46° WSW 04:56:09 10° S
Okean 3 Rocket 3.5 04:48:19 10° S 04:52:50 85° W 04:57:26 10° N
Meteor 1-10 Rocket 4.4 04:47:23 10° N 04:52:58 73° ENE 04:58:30 10° SSE
ATLAS 5 CENTAUR R/B 4.1 04:52:03 10° SSE 04:54:53 20° ESE 04:57:55 10° ENE
H-2A R/B 3.3 04:51:16 10° SE 04:55:14 40° ENE 04:59:19 10° N
DNEPR-1 R/B 3.9 04:53:14 23° NW 04:56:22 89° ENE 05:02:07 10° SE
Cosmos 1833 4.3 04:51:16 13° NNW 04:56:30 81° ENE 05:02:14 10° SSE
Cosmos 1812 3.0 04:56:58 32° NW 04:58:10 43° W 05:01:48 10° SSW
CBERS 1 LM4 rocket 4.4 04:54:27 10° N 04:59:14 59° WNW 05:04:08 10° SSW
ADEOS 3.6 04:54:20 10° NNE 04:59:35 86° ESE 05:04:49 10° SSW
Cosmos 1354 Rocket 4.2 04:57:49 10° SSW 05:03:04 76° ESE 05:08:23 10° NNE
USA 238 DEB 4.1 05:00:11 21° W 05:04:06 40° NW 05:10:34 10° NNE
USA 238 4.1 05:00:14 21° W 05:04:12 40° NW 05:10:40 10° NNE
Cosmos 1151 Rocket 3.3 05:01:35 15° NNW 05:05:02 46° W 05:09:13 10° SSW
Cosmos 1766 Rocket 3.6 05:01:51 10° SSW 05:06:06 53° WNW 05:10:20 10° N
Cosmos 2263 4.2 05:01:36 10° SW 05:07:16 67° WNW 05:13:00 10° NNE
Cosmos 2344 4.3 05:03:34 21° WNW 05:07:27 33° NNW 05:14:43 10° NNE
CZ-2C R/B 3.3 05:02:44 10° NNE 05:07:36 70° ESE 05:12:38 10° S
USA 215 3.3 05:01:22 10° SE 05:07:52 70° SW 05:13:03 17° NW
Meteor PRIRODA 3.6 05:09:16 10° NNE 05:12:54 82° ESE 05:16:31 10° S
Meteor 1-31 Rocket 3.3 05:10:50 10° N 05:14:23 34° WNW 05:17:56 10° SW
Cosmos 2279 Rocket 4.1 05:09:39 10° NNW 05:15:39 54° W 05:21:38 10° SSW
IRAS Rocket 4.2 05:11:07 10° SSE 05:16:37 77° WSW 05:22:09 10° NNW
Cosmos 2297 Rocket 4.4 05:12:39 10° N 05:16:37 19° NE 05:20:34 10° E
Cosmos 1328 Rocket 3.7 05:13:29 10° NNW 05:17:43 48° W 05:21:54 10° SSW
BREEZE-M DEB (TANK) 3.7 05:05:18 10° SW 05:18:14 70° SSE 05:21:48 10° ENE
Cosmos 2369 Rocket 2.6 05:16:02 10° SW 05:21:14 39° NW 05:26:30 10° NNE
FALCON 9 DEB 4.3 05:21:07 20° NW 05:22:23 26° NNW 05:25:19 10° NE
Cosmos 1862 3.9 05:18:51 10° SW 05:22:27 34° WNW 05:26:05 10° N
COSMO-SKYMED 1 3.6 05:19:37 10° SSW 05:23:11 25° W 05:25:48 15° NW
SMAP 3.9 05:18:46 10° NNE 05:23:21 54° E 05:27:53 10° S
Nadezhda 4 Rocket 4.0 05:19:15 10° S 05:25:24 90° E 05:31:40 10° N
H-2A R/B 4.1 05:25:07 10° NNW 05:27:38 18° WNW 05:30:11 10° WSW
H-2A R/B 3.7 05:30:04 10° NNE 05:34:35 35° E 05:39:05 10° SSE
Meteor 2-15 Rocket 4.4 05:29:23 10° NNW 05:35:28 73° W 05:41:29 10° S
Cosmos 2228 Rocket 4.0 05:31:31 10° N 05:35:54 52° ENE 05:40:19 10° SSE
CZ-4B R/B 2.6 05:33:43 10° N 05:37:14 55° WNW 05:40:44 10° SSW
CZ-4B R/B 2.0 05:35:44 10° SSE 05:39:01 57° ENE 05:42:16 10° N
Cosmos 1092 Rocket 4.4 05:33:29 10° S 05:39:40 69° E 05:45:57 10° NNE
Cosmos 1408 Rocket 3.7 05:37:20 10° SSW 05:41:29 47° WNW 05:45:40 10° N
CZ-4C R/B 4.4 05:42:05 10° SW 05:44:12 17° W 05:46:01 11° NW
DMSP B5D2-2 4.4 05:39:25 10° S 05:44:26 47° W 05:49:28 10° NNW
Cosmos 1656 Rocket 4.2 05:40:03 10° WSW 05:44:58 34° NW 05:49:56 10° N
Cosmos 1503 Rocket 4.4 05:40:12 10° SW 05:45:10 41° WNW 05:50:14 10° N
USA 32 4.1 05:42:13 10° N 05:47:30 89° E 05:52:44 10° S
CZ-2C R/B 4.0 05:44:50 10° SW 05:48:44 20° W 05:52:37 10° NW
Cosmos 1743 Rocket 3.5 05:44:23 10° SSW 05:48:47 76° W 05:53:10 10° N
FAST Rocket 4.0 05:48:30 10° SSW 05:51:04 56° W 05:53:58 10° N
AQUARIUS 4.2 05:46:52 10° NNE 05:51:23 90° ESE 05:55:52 10° SSW
Cosmos 1943 Rocket 3.8 05:48:28 10° WNW 05:51:23 14° NW 05:54:19 10° N
Cosmos 2227 Rocket 4.1 05:47:36 10° N 05:52:07 24° NE 05:56:38 10° ESE
PSLV R/B 4.1 05:52:21 10° SSE 05:56:23 80° ENE 06:00:30 10° N
PSLV R/B 4.0 05:52:37 10° NNE 05:56:33 78° ESE 06:00:33 10° S
Cosmos 1777 Rocket 4.0 05:51:36 10° SSW 05:56:47 68° WNW 06:02:01 10° NNE
Cosmos 1515 Rocket 4.3 05:54:02 10° NNW 05:57:58 33° W 06:01:50 10° SSW
SL-8 R/B 4.0 05:54:39 10° WNW 05:59:23 60° SSW 06:04:05 10° SE
CORIOLIS 4.2 05:55:14 10° NNE 06:00:43 86° WNW 06:06:10 10° SSW
Meteor 1-27 Rocket 4.0 05:55:42 10° NNW 06:01:07 50° W 06:06:37 10° SSW
Cosmos 1602 3.7 05:57:25 10° S 06:01:13 85° W 06:05:02 10° N
NOAA 6 4.0 05:57:42 10° N 06:02:48 72° WNW 06:07:53 10° SSW
COSMOS 2487 2.4 06:02:02 10° NNW 06:05:24 81° ENE 06:08:44 10° SSE
Cosmos 773 Rocket 4.5 06:00:52 10° NW 06:05:45 41° WSW 06:10:35 10° S
SJ 16-02 1.4 06:02:02 10° SW 06:06:20 54° WNW 06:10:40 10° N
